OBJECT H
1 37856U 11061H   11303.53330434  .00817553  77249-5  81830-3 0    44
2 37856 107.3170 237.6855 0390613 329.7694 028.1472 15.39999395   318
